Location: Austin, TX
(30.3000°N, 97.7500°W)
Time: 12:13:47
(UTC-05:00)

Cosmos 1666 - Visible Passes

Search period start: 24 June 2017 00:00
Search period end: 04 July 2017 00:00
Orbit: 500 x 526 km, 82.5° (Epoch: 23 June)

Date Brightness Start Highest point End Pass type
(mag) Time Alt. Az. Time Alt. Az. Time Alt. Az.
27 Jun 4.4 05:56:13 10° SSE 05:59:36 34° E 06:03:01 10° NNE visible
28 Jun 4.9 05:40:41 10° SSE 05:43:49 26° E 05:46:58 10° NNE visible
29 Jun 5.2 05:25:14 10° SE 05:28:03 20° E 05:30:52 10° NE visible
30 Jun 5.5 05:09:55 10° SE 05:12:16 16° E 05:14:38 10° NE visible
01 Jul 5.6 04:54:52 10° ESE 04:56:31 13° E 04:58:09 10° ENE visible
03 Jul 3.1 05:56:34 10° SSW 06:00:07 42° W 06:03:42 10° N visible
